Regional Weather Roundup
Issued by NWS

Home | Current Version | Previous Version | Text Only | Print | Product List | Glossary Off
Versions: 1 2 3 4 5 6 7 8 9 10 11 12 13 14 15 16 17 18 19 20 21 22 23 24 25 26 27 28 29 30 31 32 33 34 35 36 37 38 39 40 41 42 43 44 45 46 47 48 49 50

502
ASUS44 KMEG 250700
RWRTN
TENNESSEE HOURLY STATE WEATHER ROUNDUP
NATIONAL WEATHER SERVICE MEMPHIS TN
200 AM CDT THU AUG 25 2016

TNZ002-004-019-021-049-052-054-088>092-250800-
WEST TENNESSEE

CITY           SKY/WX    TMP DP  RH WIND       PRES   REMARKS
MEMPHIS INTL   CLEAR     80  75  84 S6        30.09S
NWS MEMPHIS      N/A     76 N/A N/A MISG        N/A
JACKSON        CLEAR     76  75  97 S3        30.10R
DYERSBURG      CLEAR    N/A N/A N/A MISG        N/A
UNION CITY     CLEAR     73  73 100 CALM      30.08R
PARIS          CLEAR     72  70  94 CALM      30.10S
LEXINGTON      CLEAR     73  73 100 CALM      30.09F
$$

TNZ008-025-027-028-033-062-065-066-250800-
NORTH MIDDLE TENNESSEE

CITY           SKY/WX    TMP DP  RH WIND       PRES   REMARKS
NASHVILLE      PTCLDY    76  71  85 S3        30.12R
CLARKSVILLE    CLEAR     74  72  93 CALM      30.11R
COOKEVILLE     CLEAR     73  72  94 S3        30.15S
CROSSVILLE     CLEAR     71  69  93 CALM      30.21F
$$

TNZ061-075-076-078-094-096-097-250800-
SOUTH MIDDLE TENNESSEE

CITY           SKY/WX    TMP DP  RH WIND       PRES   REMARKS
SHELBYVILLE    CLEAR     79  73  83 SE3       30.14S
$$

TNZ017-018-042-046-047-250800-
NORTHEAST TENNESSEE

CITY           SKY/WX    TMP DP  RH WIND       PRES   REMARKS
TRI CITIES     PTCLDY    69  67  93 N3        30.20F
$$

TNZ012-013-036-069-073-074-250800-
CENTRAL EAST TENNESSEE

CITY           SKY/WX    TMP DP  RH WIND       PRES   REMARKS
KNOXVILLE      PTCLDY    75  70  84 W5        30.16S
OAK RIDGE      MOCLDY    76  71  85 CALM      30.18F
GATLINBURG     PTCLDY    72  70  94 CALM      30.16F
$$

TNZ083-085-099-250800-
SOUTHEAST TENNESSEE

CITY           SKY/WX    TMP DP  RH WIND       PRES   REMARKS
CHATTANOOGA    CLEAR     76  71  85 CALM      30.16F
$$

SKY/WX REPORTED AS FAIR MEANS FEW OR NO CLOUDS BELOW
12 THOUSAND FEET.





USA.gov is the U.S. government's official web portal to all federal, state and local government web resources and services.